Content
SEND FEEDBACK

Daily
Averages
Monthly
Summary
United States of America

EVERGLADES, FLORIDA


Home > North America > United States > Florida
Elevation: 2 meters     Latitude: 25 45N     Longitude: 080 50W

WEATHER
 
SELECT A DAY
Number of Records: 193,500;   Date Range: 1/1/95 - 9/22/14
 
SHARE

PRINT THIS DATA

[ ← Previous Day ]
WEATHER ALMANAC - 31 JANUARY, 2013
[ Next Day → ]
[ °F ]   °C
Weather ElementAverageHighLow
Temperature19.8 °C23.3 °C (8:53 am)16.7 °C (11:53 pm)
Dewpoint16.3 °C21.7 °C (8:53 am)6.7 °C (11:53 pm)
Humidity81 %100 % (6:53 am)52 % (11:53 pm)
Barometer1019 hPa1022 hPa (10:53 pm)1014.9 hPa (3:53 am)
Wind Speed15.6 km/h27.8 km/h (10:19 am)
Wind Gust40.7 km/h (9:27 am)
Weather ElementAverage
Visibility16.1 km
Wind DirectionWSW (246.7 °)

Weather ElementTotal
Precipitation1.02 mm
Cooling Degree Days1.7 (Base 18.3)
Growing Degree Days10 (Base 10)
Averaged from 30 records on 31 January, 2013
WEATHER CONDITIONS BREAKOUT
WIND DIRECTION BREAKOUT
WEATHER BY HOUR - 31 JANUARY, 2013
[ °F ]   °C
Local TimeTemperatureDewpointHumidityBarometerVisibilityWind DirectionWind SpeedGust SpeedPrecipitationEventsConditions
1:53 AM21.1 °C20 °C93 %1016.3 hPa16.1 kmSouth (170°)5.6 km/hClear
2:53 AM20.6 °C20 °C96 %1015.6 hPa16.1 kmSouth (180°)7.4 km/hClear
3:53 AM21.1 °C20.6 °C97 %1014.9 hPa16.1 kmSSE (160°)9.3 km/hClear
4:53 AM21.1 °C20.6 °C97 %1015.2 hPa16.1 kmSouth (190°)5.6 km/hClear
5:53 AM20.6 °C20 °C96 %1015.6 hPa16.1 kmSouth (180°)7.4 km/hClear
6:53 AM20.6 °C20.6 °C100 %1016.3 hPa14.5 kmCalmScattered Clouds
7:53 AM21.7 °C21.1 °C96 %1016.9 hPa16.1 kmVariable9.3 km/hPartly Cloudy
8:53 AM23.3 °C21.7 °C91 %1018.3 hPa16.1 kmWSW (250°)7.4 km/hMostly Cloudy
9:27 AM21 °C18 °C83 %1019.3 hPa16.1 kmNNW (340°)25.9 km/h40.7 km/h0.25 mmRainLight Rain
9:34 AM19 °C17 °C88 %1019.3 hPa16.1 kmNNW (340°)24.1 km/h40.7 km/h0.25 mmOvercast
9:41 AM19 °C17 °C88 %1019.3 hPa16.1 kmNorth (350°)20.4 km/h0.25 mmOvercast
9:53 AM18.9 °C17.2 °C90 %1019.3 hPa16.1 kmNorth (360°)18.5 km/h0.25 mmOvercast
9:57 AM19 °C17 °C88 %1019.3 hPa16.1 kmNorth (350°)24.1 km/hOvercast
10:12 AM18 °C17 °C94 %1019.6 hPa16.1 kmNorth (350°)22.2 km/h0 mmRainLight Rain
10:19 AM18 °C17 °C94 %1019.6 hPa16.1 kmNNW (340°)27.8 km/h37 km/h0 mmRainLight Rain
10:53 AM18.3 °C16.1 °C87 %1020 hPa16.1 kmNorth (350°)22.2 km/h0 mmOvercast
11:53 AM21.1 °C16.1 °C73 %1019.6 hPa16.1 kmNorth (350°)22.2 km/hOvercast
12:53 PM23.3 °C16.7 °C66 %1019 hPa16.1 kmNNW (330°)18.5 km/hMostly Cloudy
1:53 PM23.3 °C16.7 °C66 %1018.3 hPa16.1 kmNW (320°)22.2 km/hMostly Cloudy
2:53 PM21.7 °C16.1 °C70 %1017.9 hPa16.1 kmNorth (350°)14.8 km/hOvercast
3:53 PM20.6 °C14.4 °C68 %1018.6 hPa16.1 kmNNW (340°)13 km/hOvercast
4:53 PM18.3 °C13.9 °C75 %1018.6 hPa16.1 kmNorth (10°)18.5 km/h0 mmRainLight Rain
4:59 PM18 °C14 °C77 %1019.6 hPa16.1 kmNNW (340°)20.4 km/h0 mmRainLight Rain
5:53 PM18.3 °C12.8 °C70 %1020 hPa16.1 kmNorth (350°)18.5 km/h0 mmScattered Clouds
6:53 PM18.9 °C12.8 °C68 %1020.3 hPa16.1 kmNorth (10°)14.8 km/hOvercast
7:53 PM18.9 °C12.2 °C65 %1020.7 hPa16.1 kmNNE (20°)13 km/hOvercast
8:53 PM18.3 °C12.2 °C68 %1021.3 hPa16.1 kmNNE (20°)5.6 km/hClear
9:53 PM17.2 °C12.8 °C75 %1021.7 hPa16.1 kmNNW (340°)13 km/hClear
10:53 PM17.8 °C10 °C60 %1022 hPa16.1 kmNorth (350°)16.7 km/hMostly Cloudy
11:53 PM16.7 °C6.7 °C52 %1021.7 hPa16.1 kmNorth (360°)18.5 km/hClear
Hourly data recorded from KTMB, located 0 kilometers away from Everglades, Florida







STORIES FROM OUR PARTNERS